SCP
2 2 2 3 3 3 3 2 2 2 2 2 3 3 2 2 1 1 1 1 1 1 1 1 2 2 3 3 4 4 3 3 3 4 3 3 2 2 2 1 1 1 2
2 2 2 3 3 3 3 3 3 3 2 2 3 3 2 2 1 1 1 1 1 1 1 1 2 2 2 3 3 4 3 3 4 4 4 3 2 2 2 1 1 1 1
2 2 2 2 2 3 4 4 3 3 3 3 3 2 2 2 2 2 2 1 1 1 1 2 2 2 2 3 3 3 3 3 4 4 4 3 2 2 1 1 1 1 1
2 2 2 2 2 3 4 4 5 4 4 3 3 2 2 2 2 2 2 2 2 2 2 2 2 2 2 2 2 3 4 4 4 4 4 4 3 2 2 2 2 2 2
2 2 2 2 2 3 3 4 5 4 4 3 3 2 2 1 1 2 3 3 2 2 2 2 3 4 3 3 2 3 4 5 5 5 5 5 5 4 2 2 2 2 2
2 2 2 2 2 2 3 4 4 4 4 3 3 2 2 2 2 2 3 3 3 3 3 4 5 5 5 4 3 3 4 5 6 5 5 5 5 4 3 2 2 3 3
2 2 2 2 2 2 2 3 3 4 4 3 3 3 2 2 2 2 2 3 3 3 4 5 6 6 5 4 3 3 3 4 5 5 5 5 5 4 3 3 2 3 3
1 2 2 2 2 2 2 3 3 3 3 3 3 3 3 2 1 1 2 2 2 3 3 4 4 4 4 3 3 2 3 3 4 4 4 4 4 5 4 4 3 2 2
1 2 2 2 2 2 3 3 3 3 3 3 4 4 3 2 1 1 2 2 2 2 2 2 2 3 3 3 3 2 2 3 3 4 4 4 4 5 5 5 4 3 2
2 2 2 2 2 3 3 3 3 4 4 4 4 3 3 2 2 2 2 2 2 2 1 1 2 2 2 3 2 2 2 2 2 3 3 4 4 4 4 4 4 3 3
3 3 3 3 3 3 3 3 4 4 3 3 3 3 3 2 2 2 2 2 2 2 2 1 1 2 2 2 2 1 1 2 2 2 2 3 3 3 3 3 3 4 4
3 3 3 3 3 3 3 3 3 3 2 2 2 2 2 2 1 1 1 2 2 2 2 1 1 1 1 1 1 1 1 1 2 2 2 2 2 3 3 3 3 3 4
2 2 2 3 3 3 3 3 3 2 2 2 2 2 2 1 1 1 1 1 2 2 2 1 1 1 1 1 1 1 1 1 2 2 2 2 2 2 2 2 2 3 3
2 2 3 4 4 3 3 3 3 2 2 2 1 2 2 1 1 1 1 1 1 2 2 2 1 1 1 2 1 1 1 2 2 2 2 2 2 2 1 1 2 2 2
3 4 4 4 3 3 3 3 3 2 2 2 2 2 2 2 1 1 1 1 1 1 1 1 1 1 1 1 1 1 1 2 2 2 2 2 2 1 1 1 1 2 2
4 4 4 3 3 3 3 3 3 2 2 2 2 2 2 2 1 1 1 1 1 1 1 1 1 1 1 1 1 1 1 2 2 2 2 2 2 1 1 0 1 1 2
4 4 3 3 3 3 3 3 2 2 2 1 1 2 2 2 1 1 1 1 1 1 1 1 1 1 1 0 0 0 1 2 2 2 2 2 1 1 1 0 0 1 1
3 3 3 3 4 4 3 3 2 2 1 1 1 2 2 1 1 1 1 1 1 1 1 1 1 1 0 0 0 0 1 1 2 2 2 2 1 1 1 1 1 1 1
2 2 3 3 4 4 3 3 2 2 1 1 2 2 1 1 1 1 1 1 1 1 1 1 1 1 0 0 0 0 1 1 1 2 2 2 1 1 0 1 1 2 2
3 3 4 4 4 3 2 2 2 2 2 2 2 1 1 1 1 1 1 1 1 1 1 1 1 0 0 0 0 0 1 1 1 1 1 1 1 0 0 1 2 2 3
5 5 4 3 3 2 2 2 2 2 2 2 2 1 1 1 1 1 1 1 1 1 1 0 0 0 0 0 0 0 1 1 1 1 2 1 0 0 0 1 1 2 2
6 6 6 4 2 2 2 2 2 2 2 2 2 2 1 1 1 1 1 0 0 0 0 0 0 0 0 0 0 0 0 0 1 1 1 1 0 0 0 0 1 1 1
5 7 7 5 3 2 2 2 2 2 2 2 2 2 2 1 1 1 0 0 0 0 0 0 0 0 0 0 0 0 0 0 1 1 1 1 0 0 0 0 0 1 1
5 7 8 6 4 3 2 2 2 2 2 2 2 3 2 2 1 1 1 0 0 0 0 0 0 0 0 0 0 0 0 0 0 0 0 0 0 0 0 0 0 0 1
6 6 7 6 5 3 3 2 2 2 2 2 2 2 3 2 2 1 1 0 0 0 0 0 0 0 0 0 0 0 0 0 0 0 0 0 0 0 0 0 0 0 0
6 6 6 6 5 4 3 3 2 2 2 2 2 2 2 3 2 1 1 0 0 0 0 0 0 0 0 0 0 0 0 0 0 0 0 0 0 0 0 0 0 0 0
Wind_Speed
5 6 6 6 6 6 5 5 4 4 4 4 4 3 3 2 2 2 2 2 2 2 2 1 2 3 2 2 2 3 3 3 2 3 3 3 3 3 3 3 3 4 4
6 6 6 6 6 6 5 5 4 4 4 3 3 2 2 2 2 2 2 3 3 3 3 2 2 2 2 3 3 3 3 2 2 2 2 3 4 4 3 3 4 4 3
7 7 7 7 7 6 5 4 4 4 4 4 3 3 3 2 2 2 2 2 2 3 2 3 3 3 3 2 3 4 4 3 2 2 3 3 2 2 3 4 3 3 3
7 8 8 7 6 6 6 5 5 4 4 4 4 4 3 2 2 1 1 2 2 2 2 3 3 3 3 3 4 3 4 4 3 3 3 3 3 3 2 3 3 3 4
9 8 8 7 6 6 5 5 5 5 4 4 4 4 3 2 2 2 2 2 2 2 2 2 2 3 3 3 3 3 4 4 4 3 2 3 3 4 3 3 2 3 3
9 8 8 8 6 6 6 5 5 5 4 4 4 4 3 2 2 2 2 3 2 2 2 2 2 3 2 2 3 3 4 3 3 3 3 3 2 3 3 4 4 3 2
8 8 8 7 7 6 6 5 5 5 4 4 4 3 3 3 3 3 3 3 2 2 1 1 2 1 1 2 2 2 2 3 3 4 2 2 2 2 3 4 3 3 2
9 8 8 7 6 6 6 6 6 5 5 4 4 3 3 2 2 2 2 2 2 1 1 1 1 1 1 2 2 2 2 2 3 3 2 2 2 2 3 3 3 4 3
9 8 8 7 6 6 6 5 5 5 5 4 4 3 3 1 1 1 2 1 1 1 2 2 2 1 1 2 2 1 2 2 3 3 3 3 2 3 3 3 4 4 4
8 9 8 7 6 6 6 5 5 5 4 4 3 3 3 2 1 1 1 1 1 1 1 2 2 2 2 2 2 2 2 2 2 2 2 3 3 2 3 3 4 4 5
8 8 7 7 7 6 6 6 6 5 4 4 3 3 2 1 2 1 1 1 1 1 1 1 2 2 2 2 2 2 2 3 2 3 3 3 3 2 2 3 3 4 4
7 7 8 8 8 7 7 6 6 5 5 4 3 3 2 1 1 1 1 2 2 2 2 2 2 2 2 2 3 3 3 3 3 3 3 3 2 3 3 3 3 3 3
7 7 8 8 8 7 7 6 6 5 4 4 3 3 2 2 1 1 1 1 2 2 2 2 2 2 2 2 3 3 3 3 2 2 3 3 3 3 2 3 4 3 3
7 7 7 7 7 7 7 6 6 5 5 4 4 3 2 1 1 1 1 1 1 2 1 1 2 2 2 2 2 2 2 2 2 2 2 2 2 2 2 3 3 4 3
8 8 7 7 7 7 7 6 6 5 5 4 4 3 2 2 1 1 1 1 1 1 0 0 1 1 2 2 2 2 2 2 2 2 1 1 1 2 2 3 3 3 3
7 7 7 7 7 7 6 6 6 5 5 4 4 3 3 2 2 1 1 1 1 1 1 1 1 1 1 2 1 3 1 1 1 1 1 2 3 3 1 1 2 3 3
6 7 7 7 6 6 6 6 6 6 5 4 4 3 3 3 2 2 1 1 1 1 1 1 1 1 2 3 1 2 1 1 1 1 1 1 0 1 1 2 3 1 2
5 6 6 6 6 6 6 6 6 6 5 4 4 4 3 3 2 2 1 1 1 0 0 1 1 1 2 3 2 0 2 1 1 1 1 1 1 1 1 1 1 1 1
4 4 5 5 6 6 6 6 6 6 5 4 4 3 3 3 2 2 1 1 1 0 0 0 1 1 2 2 1 2 1 1 1 0 0 0 0 2 1 1 1 1 0
4 5 5 6 6 6 6 7 6 6 5 4 4 3 3 2 2 1 1 1 1 1 0 1 1 1 1 2 0 2 1 0 1 1 2 2 1 2 1 2 1 2 2
5 5 6 6 6 6 7 6 6 5 4 4 4 4 3 2 2 1 1 1 1 0 0 1 1 1 1 2 1 1 2 1 1 0 0 2 4 2 1 2 2 2 4
6 6 5 6 6 6 6 6 6 5 5 4 4 4 3 2 2 2 1 1 1 1 1 1 1 0 1 2 2 1 1 3 1 1 0 2 3 1 2 2 2 3 5
5 5 5 6 6 6 5 5 5 5 5 5 4 4 3 2 2 2 2 2 1 1 1 0 0 0 1 2 3 3 2 2 1 1 3 2 3 4 4 4 5 5 4
5 5 5 6 6 5 5 5 5 5 6 5 4 4 4 3 2 2 2 1 0 1 1 1 1 1 0 0 1 1 2 4 3 2 3 5 5 5 2 3 3 3 2
4 4 4 5 5 5 5 5 5 6 6 5 4 4 4 3 2 2 1 0 1 2 2 2 2 2 1 3 4 3 2 2 1 1 2 2 2 1 1 1 1 2 2
5 5 5 5 5 5 5 5 5 6 6 5 4 3 3 3 2 2 3 3 2 3 1 1 3 2 3 2 2 2 2 1 2 3 2 1 1 2 2 1 1 2 2
Wind_Direction
150 143 149 150 149 154 157 158 161 155 170 171 181 180 174 175 169 165 162 193 205 202 225 236 195 232 224 232 233 224 213 221 223 236 228 210 208 219 220 224 230 218 223
153 144 148 151 156 159 159 160 162 159 169 164 176 182 175 180 175 172 167 194 192 203 208 224 230 218 217 217 231 231 242 230 221 248 249 226 193 199 208 209 216 226 228
164 156 158 159 163 164 166 165 167 166 170 166 171 160 166 181 171 179 176 191 194 198 223 212 230 227 228 208 222 228 231 237 225 239 256 254 236 197 182 202 210 219 231
172 164 162 164 165 164 162 160 160 158 163 176 176 176 185 192 184 193 166 185 197 205 211 221 225 237 235 221 226 217 230 233 230 210 239 277 309 263 209 196 197 218 231
173 169 165 163 163 161 157 154 154 157 161 173 174 189 198 202 182 176 170 210 196 206 208 217 228 236 242 239 246 237 235 233 238 232 223 229 235 250 260 245 227 226 229
172 169 162 157 160 158 155 153 153 156 158 171 174 187 187 194 185 200 196 212 197 198 197 210 224 233 244 237 234 236 226 231 234 242 239 235 236 244 255 260 257 253 238
173 168 162 159 160 160 158 155 156 157 158 164 170 175 174 177 190 215 203 227 213 201 186 225 239 246 240 245 239 223 223 224 224 228 229 238 251 258 260 259 263 266 257
177 173 166 161 159 157 156 159 160 160 162 163 162 165 177 196 194 211 231 224 242 226 172 221 242 263 256 251 241 235 220 208 222 222 220 227 236 247 254 262 269 267 256
177 173 166 163 158 155 156 159 158 160 164 162 159 162 175 196 179 197 226 224 229 201 188 216 232 243 242 245 241 235 232 216 216 211 211 227 229 243 250 255 260 267 272
175 171 165 160 155 153 150 152 152 148 152 158 165 158 167 173 163 195 214 231 237 240 213 228 240 237 231 234 241 232 213 215 216 221 224 231 230 233 244 251 255 259 269
172 164 160 154 150 147 148 151 149 147 153 154 153 154 161 162 171 185 208 205 214 216 222 230 238 230 226 218 221 235 227 225 222 222 218 227 244 245 251 251 256 256 260
162 159 154 152 152 152 152 149 150 151 154 149 147 148 151 161 184 181 206 209 211 220 217 224 238 238 231 221 221 231 228 229 234 237 233 233 228 232 252 260 262 260 265
156 152 153 155 155 153 150 149 149 144 142 139 139 131 134 131 137 151 196 209 199 207 215 222 233 240 238 229 232 232 231 234 241 243 239 244 245 248 259 264 265 266 261
156 157 155 155 153 153 153 152 150 146 144 145 142 134 128 123 134 146 158 181 190 195 205 227 241 244 248 244 234 226 223 225 233 236 241 256 254 254 263 263 269 275 275
161 161 159 155 157 156 155 154 149 144 145 148 146 137 130 124 134 140 151 186 201 188 173 249 265 264 254 256 249 226 217 218 221 214 211 205 78 26 329 306 299 287 276
167 162 161 161 161 159 160 155 150 146 147 149 148 139 134 128 133 134 142 120 90 68 58 11 342 327 338 56 7 291 229 211 221 222 209 190 172 140 135 16 358 322 295
168 166 166 165 162 162 159 157 153 148 148 150 146 138 137 131 129 128 116 95 74 55 35 10 349 23 51 76 66 322 272 261 261 261 272 287 43 188 213 174 188 217 258
168 169 168 164 161 158 157 157 154 150 150 151 144 137 138 137 132 128 110 90 86 77 57 7 2 23 61 100 121 240 217 258 271 273 256 242 298 350 331 293 297 304 314
163 166 168 163 162 159 156 159 156 154 156 153 149 141 142 146 146 122 98 94 99 76 16 25 20 34 67 87 139 257 216 197 215 224 349 285 165 53 9 268 283 294 264
152 161 161 159 160 157 155 160 160 161 161 158 156 146 149 153 152 137 138 121 164 194 262 56 38 32 44 80 195 270 258 233 213 156 137 98 85 60 345 263 273 291 309
150 154 157 154 153 155 158 163 163 164 162 159 155 152 158 166 158 150 159 188 214 200 305 37 50 46 43 107 115 299 300 310 295 281 141 106 121 123 302 286 290 303 297
148 151 152 148 147 156 162 164 164 161 162 161 156 152 161 175 150 152 168 197 235 210 208 203 230 151 122 82 102 114 291 314 294 298 334 97 121 146 245 258 288 278 268
147 149 150 149 149 156 165 164 159 159 158 158 157 157 162 170 166 179 184 198 223 264 260 242 238 212 125 125 141 166 188 238 256 39 77 130 191 207 213 217 237 246 256
148 152 154 150 149 156 165 162 159 159 156 154 156 159 160 163 159 202 197 206 207 282 305 307 307 315 290 64 102 176 179 187 199 181 147 179 208 223 230 210 220 246 298
151 155 155 151 148 155 160 160 158 159 158 158 164 169 167 163 166 174 74 350 58 24 329 334 328 327 327 30 12 334 328 336 5 289 233 223 203 218 233 244 268 270 266
153 157 160 157 155 158 160 161 161 163 165 165 170 174 172 163 177 161 140 91 85 124 147 314 323 13 46 40 15 4 349 302 270 268 258 266 280 283 281 270 264 266 283